Ponca City, OK

5:15 PM CST on November 17, 2019 (GMT -0600)
Ponca City Municipal

Weather History for KPNC - October, 2019

Change the Weather History Date:

Monday, October 21, 2019

  Actual Average Record
Temperature  
Mean Temperature 57 °F -  
Max Temperature 68 °F 73 °F 91 °F (2012)
Min Temperature 46 °F 52 °F 35 °F (2006)
Degree Days  
Heating Degree Days 8    
Growing Degree Days 7 (Base 50)    
Moisture  
Dew Point 28 °F    
Average Humidity 38    
Maximum Humidity 66    
Minimum Humidity 15    
Precipitation  
Precipitation 0.00 in - - ()
Sea Level Pressure  
Sea Level Pressure 29.80 in    
Wind  
Wind Speed 8 mph (WNW)    
Max Wind Speed 20 mph    
Max Gust Speed 32 mph    
Visibility 10 miles    
Events      
Averages and records for this station are not official NWS values.
T = Trace of Precipitation, MM = Missing Value Source: NWS Daily Summary

Daily Weather History Graph

Daily Weather History Graph

Search for Another Location

Airport or City:

Astronomy

Oct. 21, 2019 Rise Set
Actual Time 7:41 AM CDT 6:44 PM CDT
Civil Twilight 7:14 AM CDT 7:10 PM CDT
Nautical Twilight 6:44 AM CDT 7:40 PM CDT
Astronomical Twilight 6:14 AM CDT 8:10 PM CDT
Moon 12:01 AM CDT (10/21) 2:54 PM CDT (10/21)
Length of Visible Light 11h 55m
Length of Day
11h 03m
Waning Gibbous, 48% of the Moon is Illuminated
Oct 21
Waning Gibbous
Oct 27
New
Nov 4
First Quarter
Nov 12
Full
Nov 19
Last Quarter

Hourly Weather History & Observations

Time (CDT) Temp. Dew Point Humidity Pressure Visibility Wind Dir Wind Speed Gust Speed Precip Events Conditions
12:53 AM 51.1 °F 39.9 °F 66% 29.62 in 10.0 mi North 3.5 mph - N/A   Clear
1:53 AM 53.1 °F 36.0 °F 52% 29.63 in 10.0 mi NW 10.4 mph - N/A   Clear
2:53 AM 51.1 °F 35.1 °F 54% 29.68 in 8.0 mi West 3.5 mph - N/A   Clear
3:53 AM 48.9 °F 34.0 °F 56% 29.71 in 7.0 mi West 4.6 mph - N/A   Clear
4:53 AM 46.9 °F 34.0 °F 61% 29.72 in 10.0 mi West 5.8 mph - N/A   Clear
5:53 AM 46.9 °F 34.0 °F 61% 29.70 in 10.0 mi Variable 4.6 mph - N/A   Clear
6:53 AM 50.0 °F 33.1 °F 52% 29.73 in 10.0 mi WNW 9.2 mph 18.4 mph N/A   Clear
7:53 AM 48.9 °F 34.0 °F 56% 29.74 in 10.0 mi West 8.1 mph - N/A   Clear
8:53 AM 52.0 °F 33.1 °F 49% 29.77 in 10.0 mi WNW 9.2 mph - N/A   Clear
9:53 AM 55.0 °F 34.0 °F 45% 29.80 in 10.0 mi West 10.4 mph 19.6 mph N/A   Clear
10:53 AM 59.0 °F 33.1 °F 38% 29.80 in 10.0 mi West 16.1 mph 27.6 mph N/A   Clear
11:53 AM 61.0 °F 30.9 °F 32% 29.80 in 10.0 mi WNW 15.0 mph 27.6 mph N/A   Clear
12:53 PM 64.0 °F 30.0 °F 28% 29.80 in 10.0 mi West 15.0 mph 23.0 mph N/A   Clear
1:53 PM 66.9 °F 24.1 °F 20% 29.79 in 10.0 mi North - - N/A   Clear
2:53 PM 66.9 °F 19.9 °F 17% 29.79 in 10.0 mi WNW 19.6 mph 31.1 mph N/A   Clear
3:53 PM 68.0 °F 19.0 °F 15% 29.80 in 10.0 mi WNW 15.0 mph 32.2 mph N/A   Clear
4:53 PM 66.9 °F 17.1 °F 15% 29.81 in 10.0 mi NW 16.1 mph 28.8 mph N/A   Clear
5:53 PM 64.9 °F 18.0 °F 16% 29.84 in 10.0 mi WNW 16.1 mph 25.3 mph N/A   Clear
6:53 PM 61.0 °F 19.9 °F 21% 29.87 in 10.0 mi WNW 9.2 mph 18.4 mph N/A   Clear
7:53 PM 57.0 °F 21.0 °F 25% 29.91 in 10.0 mi WNW 9.2 mph - N/A   Clear
8:53 PM 55.0 °F 19.9 °F 25% 29.94 in 10.0 mi NW 6.9 mph - N/A   Clear
9:53 PM 52.0 °F 23.0 °F 32% 29.98 in 10.0 mi NW 6.9 mph - N/A   Clear
10:53 PM 51.1 °F 24.1 °F 35% 30.01 in 10.0 mi NNW 8.1 mph - N/A   Clear
11:53 PM 48.9 °F 24.1 °F 38% 30.03 in 10.0 mi West 4.6 mph - N/A   Clear